| time (UTC) | temp F | wind direction | speed MPH | gust MPH | rain 1hr in | rain 24hr in | rain mn in | humidity % | barometer mb |
| 20260904061526 | 0 | 0.0 | 0.0 | 0.00 | 0.00 | 0.00 | 999.5 | ||
| 20260904060020 | 0 | 0.0 | 0.0 | 0.00 | 0.00 | 0.00 | 999.5 | ||
| 20260904053138 | 0 | 0.0 | 0.0 | 0.00 | 0.00 | 0.00 | 998.8 | ||
| 20260904051558 | 0 | 0.0 | 0.0 | 0.00 | 0.00 | 0.00 | 999.0 | ||
| 20260904044549 | 0 | 0.0 | 0.0 | 0.00 | 0.00 | 0.00 | 999.0 | ||
| 20260904043020 | 0 | 0.0 | 0.0 | 0.00 | 0.00 | 0.00 | 998.7 | ||
| 20260904041604 | 0 | 0.0 | 0.0 | 0.00 | 0.00 | 0.00 | 998.9 | ||
| 20260904040002 | 0 | 0.0 | 0.0 | 0.00 | 0.00 | 0.00 | 999.0 | ||
| 20260904030049 | 0 | 0.0 | 0.0 | 0.00 | 0.00 | 0.00 | 998.7 | ||
| 20260904014615 | 0 | 0.0 | 0.0 | 0.00 | 0.00 | 0.00 | 998.2 | ||
| 20260904010018 | 0 | 0.0 | 0.0 | 0.00 | 0.00 | 0.00 | 997.8 | ||
| 20260904001552 | 0 | 235 | 0.0 | 0.0 | 0.00 | 0.00 | 0.00 | 998.1 | |
| 20260903233005 | 0 | 235 | 0.0 | 0.0 | 0.00 | 0.00 | 0.00 | 998.4 | |
| 20260903231515 | 0 | 235 | 0.0 | 0.0 | 0.00 | 0.00 | 0.00 | 998.7 | |
| 20260903230020 | 0 | 234 | 0.0 | 0.0 | 0.00 | 0.00 | 0.00 | 999.0 | |
| 20260903224505 | 0 | 235 | 0.0 | 0.0 | 0.00 | 0.00 | 0.00 | 999.8 | |
| 20260903223100 | 0 | 243 | 0.0 | 0.0 | 0.00 | 0.00 | 0.00 | 1000.3 | |
| 20260903221551 | 0 | 242 | 0.0 | 0.0 | 0.00 | 0.00 | 0.00 | 1000.3 | |
| 20260903220006 | 0 | 242 | 0.0 | 0.0 | 0.00 | 0.00 | 0.00 | 1000.5 | |
| 20260903214503 | 0 | 240 | 0.0 | 0.0 | 0.00 | 0.00 | 0.00 | 1000.8 | |
| 20260903213058 | 0 | 242 | 0.0 | 0.0 | 0.00 | 0.00 | 0.00 | 1001.1 | |
| 20260903211540 | 0 | 238 | 0.0 | 0.0 | 0.00 | 0.00 | 0.00 | 1001.3 | |
| 20260903210014 | 0 | 242 | 0.0 | 0.0 | 0.00 | 0.00 | 0.00 | 1001.3 | |
| 20260903204509 | 0 | 242 | 0.0 | 0.0 | 0.00 | 0.00 | 0.00 | 1001.1 | |
| 20260903203005 | 0 | 242 | 0.0 | 0.0 | 0.00 | 0.00 | 0.00 | 1001.4 | |
| 20260903201531 | 0 | 241 | 0.0 | 0.0 | 0.00 | 0.00 | 0.00 | 1001.6 | |
| 20260903200048 | 0 | 243 | 0.0 | 0.0 | 0.00 | 0.00 | 0.00 | 1001.6 | |
| 20260903194544 | 0 | 242 | 0.0 | 0.0 | 0.00 | 0.00 | 0.00 | 1001.9 | |
| 20260903193044 | 0 | 242 | 0.0 | 0.0 | 0.00 | 0.00 | 0.00 | 1002.1 | |
| 20260903191545 | 0 | 242 | 0.0 | 0.0 | 0.00 | 0.00 | 0.00 | 1002.0 | |
| 20260903190040 | 0 | 242 | 0.0 | 0.0 | 0.00 | 0.00 | 0.00 | 1002.4 | |
| 20260903184532 | 0 | 240 | 0.0 | 0.0 | 0.00 | 0.00 | 0.00 | 1002.2 | |
| 20260903183027 | 0 | 243 | 0.0 | 0.0 | 0.00 | 0.00 | 0.00 | 1002.1 | |
| 20260903181523 | 0 | 243 | 0.0 | 0.0 | 0.00 | 0.00 | 0.00 | 1002.4 | |
| 20260903180041 | 0 | 241 | 0.0 | 0.0 | 0.00 | 0.00 | 0.00 | 1002.3 | |
| 20260903174543 | 0 | 242 | 0.0 | 0.0 | 0.00 | 0.00 | 0.00 | 1003.1 | |
| 20260903173011 | 0 | 242 | 0.0 | 0.0 | 0.00 | 0.00 | 0.00 | 1002.8 | |
| 20260903171556 | 0 | 242 | 0.0 | 0.0 | 0.00 | 0.00 | 0.00 | 1002.9 | |
| 20260903170024 | 0 | 243 | 0.0 | 0.0 | 0.00 | 0.00 | 0.00 | 1003.5 | |
| 20260903163047 | 0 | 260 | 0.0 | 0.0 | 0.00 | 0.00 | 0.00 | 1003.6 | |
| 20260903161513 | 0 | 268 | 0.0 | 0.0 | 0.00 | 0.00 | 0.00 | 1003.5 | |
| 20260903160004 | 0 | 266 | 0.0 | 0.0 | 0.00 | 0.00 | 0.00 | 1003.4 | |
| 20260903154517 | 0 | 266 | 0.0 | 0.0 | 0.00 | 0.00 | 0.00 | 1003.5 | |
| 20260903153055 | 0 | 266 | 0.0 | 0.0 | 0.00 | 0.00 | 0.00 | 1003.4 | |
| 20260903153017 | 0 | 267 | 0.0 | 0.0 | 0.00 | 0.00 | 0.00 | 1003.4 | |
| 20260903151549 | 0 | 261 | 0.0 | 0.0 | 0.00 | 0.00 | 0.00 | 1004.0 | |
| 20260903150100 | 0 | 266 | 0.0 | 0.0 | 0.00 | 0.00 | 0.00 | 1004.0 | |
| 20260903144549 | 0 | 264 | 0.0 | 0.0 | 0.00 | 0.00 | 0.00 | 1004.3 | |
| 20260903143049 | 0 | 267 | 0.0 | 0.0 | 0.00 | 0.00 | 0.00 | 1004.5 | |
| 20260903141539 | 0 | 275 | 0.0 | 0.0 | 0.00 | 0.00 | 0.00 | 1004.3 | |
| 20260903140038 | 0 | 266 | 0.0 | 0.0 | 0.00 | 0.00 | 0.00 | 1004.3 | |
| 20260903134523 | 0 | 271 | 0.0 | 0.0 | 0.00 | 0.00 | 0.00 | 1004.1 | |
| 20260903133051 | 0 | 272 | 0.0 | 0.0 | 0.00 | 0.00 | 0.00 | 1004.3 | |
| 20260903131513 | 0 | 273 | 0.0 | 0.0 | 0.00 | 0.00 | 0.00 | 1004.2 | |
| 20260903130008 | 0 | 268 | 0.0 | 0.0 | 0.00 | 0.00 | 0.00 | 1004.1 | |
| 20260903124523 | 0 | 271 | 0.0 | 0.0 | 0.00 | 0.00 | 0.00 | 1004.3 | |
| 20260903123031 | 0 | 273 | 0.0 | 0.0 | 0.00 | 0.00 | 0.00 | 1004.1 | |
| 20260903121518 | 0 | 266 | 0.0 | 0.0 | 0.00 | 0.00 | 0.00 | 1004.5 | |
| 20260903120017 | 0 | 268 | 0.0 | 0.0 | 0.00 | 0.00 | 0.00 | 1004.6 | |
| 20260903114511 | 0 | 265 | 0.0 | 0.0 | 0.00 | 0.00 | 0.00 | 1004.6 | |
| 20260903113015 | 0 | 273 | 0.0 | 0.0 | 0.00 | 0.00 | 0.00 | 1004.5 | |
| 20260903111501 | 0 | 276 | 0.0 | 0.0 | 0.00 | 0.00 | 0.00 | 1004.6 | |
| 20260903110017 | 0 | 281 | 0.0 | 0.0 | 0.00 | 0.00 | 0.00 | 1004.7 | |
| 20260903104513 | 0 | 275 | 0.0 | 0.0 | 0.00 | 0.00 | 0.00 | 1004.7 | |
| 20260903103033 | 0 | 271 | 0.0 | 0.0 | 0.00 | 0.00 | 0.00 | 1004.8 | |
| 20260903101526 | 0 | 271 | 0.0 | 0.0 | 0.00 | 0.00 | 0.00 | 1004.7 | |
| 20260903100059 | 0 | 273 | 0.0 | 0.0 | 0.00 | 0.00 | 0.00 | 1004.8 | |
| 20260903094556 | 0 | 273 | 0.0 | 0.0 | 0.00 | 0.00 | 0.00 | 1004.8 | |
| 20260903093100 | 0 | 271 | 0.0 | 0.0 | 0.00 | 0.00 | 0.00 | 1004.5 | |
| 20260903091555 | 0 | 272 | 0.0 | 0.0 | 0.00 | 0.00 | 0.00 | 1004.6 | |
| 20260903090051 | 0 | 272 | 0.0 | 0.0 | 0.00 | 0.00 | 0.00 | 1004.7 | |
| 20260903084528 | 0 | 273 | 0.0 | 0.0 | 0.00 | 0.00 | 0.00 | 1004.6 | |
| 20260903083008 | 0 | 273 | 0.0 | 0.0 | 0.00 | 0.00 | 0.00 | 1004.5 | |
| 20260903081536 | 0 | 272 | 0.0 | 0.0 | 0.00 | 0.00 | 0.00 | 1004.7 | |
| 20260903080008 | 0 | 273 | 0.0 | 0.0 | 0.00 | 0.00 | 0.00 | 1004.6 | |
| 20260903074601 | 0 | 273 | 0.0 | 0.0 | 0.00 | 0.00 | 0.00 | 1004.6 | |
| 20260903073059 | 0 | 274 | 0.0 | 0.0 | 0.00 | 0.00 | 0.00 | 1004.5 | |
| 20260903071550 | 0 | 275 | 0.0 | 0.0 | 0.00 | 0.00 | 0.00 | 1004.6 | |
| 20260903070046 | 0 | 277 | 0.0 | 0.0 | 0.00 | 0.00 | 0.00 | 1004.5 | |
| 20260903064524 | 0 | 276 | 0.0 | 0.0 | 0.00 | 0.00 | 0.00 | 1004.6 | |
| 20260903063025 | 0 | 276 | 0.0 | 0.0 | 0.00 | 0.00 | 0.00 | 1004.3 |